Wind_Speed
120 118 114 111 109 109 110 110 110 108 106 102 99 94 90 85 81 79 76 74 76 78 77 75 74 72 68 64 61 58 56 53 52 51 49 48 47 47 46 45 44 43 41 40 39 39 38 36 34 34 33 32 31 31 31 31 31 32 32 33 34 35 35 35 35 35 34 33 32 33 33 32 33 34 35 33 32 31 30 30 30 29 28 28 29 30 29
119 119 116 112 110 110 110 109 110 110 107 102 99 96 92 88 84 81 78 77 79 81 80 78 75 71 68 64 60 58 56 54 53 51 50 49 49 48 47 45 44 43 42 42 41 40 39 37 35 35 35 34 33 33 33 33 34 34 35 36 36 37 37 37 37 36 34 33 32 32 33 33 34 35 36 36 34 33 33 32 31 30 30 30 31 31 31
118 119 118 115 112 112 111 110 110 110 107 103 100 98 95 91 86 83 81 81 83 84 82 79 75 71 69 65 61 59 57 55 54 52 52 51 51 49 47 46 45 44 43 43 42 42 40 38 37 37 36 35 34 35 35 35 36 36 37 38 38 39 39 39 38 36 35 34 33 33 33 33 34 35 37 37 37 36 35 34 33 32 32 33 33 32 32
115 119 120 117 114 113 113 111 110 109 107 104 101 100 98 93 88 85 84 84 87 87 82 78 75 72 71 68 64 61 59 56 55 54 54 53 52 51 49 47 46 45 44 44 44 43 42 39 38 38 38 36 35 36 37 37 38 38 39 40 40 40 40 39 38 37 36 36 35 34 34 34 34 35 37 38 39 39 38 36 35 34 34 35 34 34 34
112 118 120 118 116 114 114 112 110 108 107 104 102 100 99 95 91 89 87 86 90 89 82 78 77 74 73 70 66 62 60 58 57 55 55 55 54 53 50 48 47 46 45 45 45 44 43 41 39 39 39 37 37 38 39 40 40 40 40 41 41 41 40 39 39 39 38 37 37 36 35 34 35 35 36 37 40 41 40 39 37 37 37 37 36 36 36
109 115 118 118 116 114 112 111 110 108 106 105 104 101 99 96 94 91 89 89 92 89 82 80 79 76 74 73 68 64 62 60 58 57 56 56 55 53 51 49 48 47 46 46 46 45 44 42 41 41 39 38 38 39 40 40 41 41 41 41 41 41 41 41 41 41 40 39 38 37 36 35 35 36 36 37 39 41 41 40 40 40 39 39 38 38 38
107 112 115 116 114 110 109 110 111 109 107 106 105 101 99 97 95 93 91 92 94 90 83 82 81 78 76 75 71 67 64 62 61 59 58 57 55 55 53 51 50 49 47 47 46 45 44 42 42 41 39 39 39 40 40 41 41 41 41 41 41 41 41 41 41 41 41 41 39 38 37 36 36 37 38 38 38 39 40 41 41 41 40 40 39 39 40
104 108 112 112 108 105 107 111 112 110 107 106 105 102 99 98 97 95 94 94 95 91 86 84 83 81 79 76 73 70 67 64 63 61 59 58 57 56 54 52 51 50 48 48 47 46 44 43 43 42 41 41 41 41 42 42 42 42 41 41 41 42 42 42 41 42 42 42 41 39 38 38 38 38 38 38 37 37 38 39 40 40 41 41 41 41 41
101 104 107 107 104 105 109 112 111 109 107 105 104 102 100 98 97 97 96 96 96 92 88 86 85 83 81 78 76 73 70 67 66 63 61 59 58 57 55 53 52 51 50 49 47 46 45 45 44 44 43 43 43 43 43 43 42 42 41 41 41 42 42 42 42 43 43 44 43 42 40 40 40 40 39 38 37 37 37 39 39 40 40 40 41 41 42
98 100 103 105 104 105 108 110 109 107 105 104 103 102 100 99 98 98 98 97 97 93 89 88 87 85 83 80 77 75 72 70 68 65 63 61 59 58 56 54 53 52 50 49 47 46 46 45 45 44 44 44 43 43 42 42 42 42 41 41 42 42 44 44 44 45 45 45 45 44 43 43 42 42 41 39 37 37 38 39 39 40 39 39 39 40 42
94 97 100 102 103 102 105 107 106 105 105 104 103 102 102 100 100 100 99 99 98 95 92 91 89 87 84 81 78 76 74 72 70 67 65 62 60 58 56 56 54 53 51 49 47 47 47 45 44 44 45 44 43 42 42 42 42 42 41 42 42 44 45 46 46 46 46 46 46 46 46 46 45 43 42 41 39 38 37 38 39 39 39 39 40 40 41
90 94 97 100 101 101 103 105 104 103 103 103 103 103 102 101 100 100 99 100 99 96 94 93 91 88 85 82 80 77 75 73 72 69 67 64 61 59 58 57 55 53 51 49 48 48 46 45 45 45 45 44 43 42 42 41 42 42 42 42 43 44 45 46 46 46 46 47 47 48 49 48 47 45 44 43 41 39 38 38 38 39 40 40 41 41 42
88 92 95 98 99 99 101 104 103 102 101 103 103 102 100 100 100 99 99 100 99 97 95 94 93 90 86 84 81 78 76 74 72 70 69 66 64 62 60 58 57 54 52 50 49 48 46 45 46 46 45 44 43 42 41 42 43 44 43 43 43 44 45 45 46 46 47 47 48 49 50 49 48 47 46 45 43 41 39 39 39 39 40 40 41 41 42
86 91 95 98 98 98 100 102 102 100 100 101 101 99 99 100 101 99 99 99 99 97 96 96 94 91 88 86 83 80 78 76 73 71 69 68 66 64 62 60 58 55 53 52 50 47 46 47 47 46 45 44 43 42 43 44 45 44 43 42 43 44 44 45 45 46 46 47 48 49 49 49 49 49 48 47 45 44 42 41 41 41 41 41 41 40 40
86 91 96 99 98 97 98 101 101 100 99 99 99 98 99 100 101 100 99 99 98 97 97 96 94 92 90 88 85 82 80 77 74 72 70 68 67 66 64 62 60 57 55 52 49 47 47 48 48 46 45 44 43 43 44 45 44 43 42 42 43 43 44 44 44 44 44 45 46 48 49 49 50 50 49 48 47 45 44 44 44 43 43 43 42 41 40
85 91 96 98 97 96 97 100 101 99 97 97 98 99 99 100 101 100 99 98 98 97 96 96 94 92 91 89 86 83 81 78 75 73 71 69 68 67 66 64 62 59 56 52 49 47 48 49 48 47 46 45 45 45 45 45 44 42 41 42 43 43 43 43 42 43 43 43 44 46 48 49 50 50 50 49 48 47 46 47 47 47 46 46 45 44 42
84 91 95 96 95 95 96 99 99 98 96 95 98 99 98 98 99 100 98 98 98 96 95 95 94 92 91 89 87 85 82 79 76 74 72 70 69 68 67 65 63 60 57 53 50 49 50 50 49 48 47 46 46 46 45 44 43 42 41 42 43 43 43 43 43 43 44 44 45 46 47 48 49 50 50 50 50 50 49 49 50 50 49 48 48 47 46
85 91 94 94 94 93 94 97 98 97 95 96 97 98 97 97 97 98 98 96 95 96 95 93 92 91 90 88 86 84 82 79 76 74 73 72 70 68 67 66 64 61 58 55 51 50 51 52 50 49 48 47 46 46 45 44 43 42 42 43 43 44 44 44 44 44 44 45 46 46 46 47 48 49 50 51 51 52 52 52 53 52 52 51 51 50 49
86 91 93 94 93 92 93 95 96 96 95 95 96 97 97 95 95 97 97 93 91 91 91 91 92 90 88 87 86 83 81 78 75 74 74 72 71 69 68 67 65 63 60 56 53 52 52 52 51 50 49 48 47 46 45 45 44 42 42 43 44 44 44 44 44 44 45 45 46 46 47 48 48 49 50 52 53 54 55 55 55 54 54 53 52 52 50
84 88 91 92 92 92 93 94 95 96 96 95 95 95 95 94 93 95 96 94 90 85 81 83 89 91 87 85 85 82 79 77 74 73 73 73 71 70 68 67 66 63 61 58 55 53 53 53 52 51 50 48 47 46 46 45 43 43 43 43 43 43 43 43 43 44 44 45 45 46 48 49 49 50 52 53 54 55 55 55 55 55 54 54 53 53 52
82 87 89 91 91 91 91 93 94 95 95 94 93 93 93 92 92 93 94 94 92 85 76 74 82 88 87 85 84 81 78 75 73 72 72 72 71 69 68 67 66 64 62 60 57 54 54 54 54 53 51 49 47 46 46 45 43 42 43 43 43 43 42 42 42 42 43 44 45 46 48 49 50 51 53 54 54 55 55 55 55 56 56 55 55 54 53
82 85 89 91 90 88 90 92 93 94 94 93 92 92 92 92 91 91 91 91 90 87 81 76 76 80 84 86 83 79 76 74 72 72 72 70 69 68 67 66 65 63 62 61 59 57 56 55 54 53 52 50 48 47 46 44 43 43 43 43 42 42 42 41 41 42 42 43 45 46 48 50 51 52 54 55 55 55 55 55 56 56 56 57 57 56 55
82 85 87 89 88 87 89 91 92 93 93 92 90 90 90 90 90 89 89 89 86 84 83 79 73 73 80 84 82 78 75 74 73 71 71 70 68 67 67 65 64 63 62 61 60 59 58 57 55 54 53 51 49 48 46 45 44 43 43 43 42 42 42 42 42 41 42 42 43 44 46 48 50 52 53 54 55 55 55 56 56 57 57 57 57 56 56
81 84 86 87 86 86 88 90 91 93 93 91 89 88 87 88 88 87 87 86 81 78 79 78 73 71 76 80 80 79 77 75 74 72 70 70 69 68 67 66 64 63 63 62 60 60 59 58 57 55 54 52 50 48 47 46 45 45 44 44 44 43 43 42 42 41 41 42 42 41 42 44 46 47 49 50 51 52 53 55 56 56 56 56 56 56 56
80 82 84 84 84 85 88 90 92 93 92 90 88 87 86 85 86 86 85 82 76 73 75 76 72 71 75 78 79 80 78 75 74 73 72 71 70 69 68 68 67 65 63 62 61 60 59 59 58 57 55 53 51 50 48 47 46 46 45 45 45 45 44 44 43 42 42 42 41 41 41 42 44 44 45 46 47 48 49 51 52 53 54 54 54 55 55
78 80 81 82 83 85 88 91 92 92 91 89 88 88 86 86 86 83 81 80 75 70 72 76 73 71 74 78 79 79 79 77 75 74 74 73 71 70 69 69 68 67 65 64 63 62 60 59 58 57 56 54 53 52 50 49 48 47 47 47 47 47 46 46 45 44 44 43 43 42 42 43 44 44 44 44 44 45 46 48 49 50 51 52 52 53 53
75 76 78 80 83 85 88 90 91 91 90 89 89 90 88 88 87 82 77 77 74 67 67 74 75 70 69 75 79 80 79 77 77 76 74 74 72 71 70 69 68 68 67 66 64 63 62 60 59 58 58 57 56 55 53 51 50 49 49 49 49 49 48 48 47 46 46 45 45 44 44 44 44 44 44 44 43 44 45 45 46 47 47 48 50 51 51
72 73 77 81 85 87 89 90 90 89 90 90 91 91 90 89 88 84 78 76 75 69 65 69 74 72 68 68 73 79 79 78 76 75 74 75 74 73 71 69 68 68 68 67 66 65 63 62 60 59 59 59 58 57 56 54 53 52 52 51 51 51 50 50 49 48 48 48 47 47 46 46 46 46 45 45 45 45 45 45 45 44 45 46 47 47 48
69 72 77 83 87 89 90 90 89 88 88 89 90 89 89 88 88 86 80 77 77 74 70 67 68 72 71 66 66 71 77 78 76 74 73 73 73 73 72 71 69 68 68 67 66 65 65 63 62 62 61 60 60 59 59 58 56 55 54 53 53 53 53 52 52 51 51 51 50 50 49 48 48 47 47 47 46 46 46 46 45 44 44 45 45 45 46
67 73 79 84 88 90 90 90 89 88 88 88 88 86 84 85 87 86 83 80 78 77 75 71 68 68 71 68 65 67 71 74 74 73 70 69 69 70 71 71 70 69 68 67 66 66 66 66 65 64 64 63 61 61 61 60 59 58 57 56 56 56 55 55 55 54 54 54 53 53 52 51 51 50 49 48 48 48 47 47 46 46 45 45 45 45 44
67 74 81 86 90 91 91 90 89 88 86 86 87 85 82 82 84 84 82 82 81 78 75 75 73 70 70 69 68 67 68 69 72 72 70 67 66 67 69 71 72 70 68 67 66 67 67 66 66 66 66 65 64 63 63 62 62 61 60 60 59 59 58 58 57 57 57 57 56 56 55 54 54 53 52 51 50 50 49 48 47 47 46 46 46 46 45
68 75 83 89 91 92 92 91 90 88 85 82 83 85 84 82 82 83 83 83 84 81 76 75 76 76 76 74 71 68 67 67 68 68 69 67 64 62 65 69 70 69 68 65 63 63 64 63 62 62 63 64 64 64 63 63 63 63 63 63 63 63 62 61 60 59 59 59 59 58 57 57 56 56 55 54 54 53 52 51 50 50 49 49 49 48 48
69 77 85 91 93 94 94 93 92 90 86 81 80 83 85 83 81 83 84 85 85 83 80 77 77 78 80 80 77 72 70 69 68 67 69 68 65 63 65 67 67 66 65 62 60 60 61 60 59 59 60 61 62 62 62 63 64 65 66 66 67 67 66 64 63 62 61 61 61 60 60 60 59 59 58 58 57 56 56 55 55 55 55 54 53 52 51
70 80 87 93 95 96 96 96 94 93 90 86 82 81 83 83 82 83 85 86 87 87 83 80 78 77 80 82 80 76 73 73 73 73 72 71 68 68 69 70 68 66 63 60 60 61 62 61 61 62 62 61 61 61 61 63 65 66 67 68 68 69 68 67 66 65 64 63 63 62 62 62 62 62 62 60 59 59 60 60 59 59 59 58 58 58 57
72 82 90 95 97 98 98 98 98 96 94 91 86 83 83 82 82 84 85 87 90 90 87 83 81 79 80 81 81 78 76 76 76 76 76 74 72 71 72 71 70 69 68 65 65 66 65 63 64 65 66 66 65 64 64 65 66 66 67 68 69 69 68 68 67 66 66 66 66 65 65 64 64 65 65 64 63 63 63 63 62 61 61 60 61 61 61
74 84 91 96 99 100 101 101 100 99 98 95 91 88 87 84 83 85 88 90 93 93 90 86 84 84 82 82 82 81 80 79 79 78 79 78 75 75 75 74 72 72 72 71 71 69 67 64 63 64 66 67 67 66 65 64 64 65 66 68 70 70 70 69 69 68 68 68 68 68 68 67 67 66 66 66 66 66 66 66 65 64 63 62 62 62 63
74 85 92 97 100 101 103 103 102 101 101 99 95 92 90 88 87 88 91 93 96 97 93 89 88 87 86 86 86 86 84 84 83 82 82 82 80 78 78 78 78 77 76 75 74 73 70 67 64 64 65 66 65 65 65 65 64 64 66 68 70 72 73 73 72 72 71 71 71 71 71 71 70 69 69 68 68 67 67 67 67 67 66 65 64 64 65
74 84 93 98 101 103 104 104 104 103 102 101 98 95 94 93 92 93 94 95 98 100 97 93 92 91 90 90 91 90 88 88 87 85 85 86 85 83 81 82 83 83 81 80 79 78 75 73 71 70 71 70 68 68 68 67 65 64 66 68 70 73 75 76 76 76 77 76 76 75 75 74 74 73 72 72 71 70 69 69 69 69 69 68 68 68 68
76 84 92 97 101 104 105 106 105 105 104 103 102 100 99 97 96 98 98 98 100 102 100 97 95 95 94 94 94 93 91 90 88 87 87 89 90 88 86 84 85 86 86 85 84 83 82 81 79 78 77 77 76 75 75 74 71 69 69 71 73 76 77 77 77 78 80 81 81 80 80 79 79 77 76 75 75 74 73 73 72 72 72 72 72 72 72
77 85 93 97 100 103 106 107 107 107 107 106 104 104 103 101 99 100 100 99 100 102 102 101 99 98 97 97 97 96 95 93 90 87 87 89 92 93 90 87 86 87 89 90 89 88 87 87 87 87 85 85 85 85 84 84 82 80 78 77 78 80 80 79 78 79 80 81 82 83 83 82 82 81 81 80 79 78 78 77 77 76 76 75 76 76 76
75 84 92 98 101 103 106 108 109 110 110 109 107 106 106 104 102 101 101 101 101 102 102 103 103 103 101 100 99 99 98 97 94 91 89 89 91 93 94 92 90 89 90 91 93 92 91 90 90 90 90 89 88 88 88 88 88 87 86 84 83 83 83 81 79 78 78 80 82 83 84 84 84 83 83 83 82 82 82 81 81 80 80 79 79 80 80
71 80 89 96 101 104 107 109 110 112 113 113 111 110 109 108 107 105 104 104 104 103 103 104 106 107 107 105 103 102 101 100 99 97 95 94 94 94 95 96 96 94 92 92 93 94 95 94 92 90 89 88 88 88 87 86 86 87 87 87 86 86 85 83 80 77 77 78 80 82 83 85 85 85 85 86 86 85 85 85 84 83 83 82 82 83 83
68 74 83 92 98 102 106 110 112 113 114 115 115 114 113 112 111 110 109 109 108 107 106 106 107 109 111 110 108 106 105 104 103 102 102 100 99 98 98 98 99 98 97 96 95 96 97 98 97 94 90 88 88 88 88 87 87 87 88 88 88 88 87 85 83 82 81 81 81 81 82 84 86 86 87 87 88 88 88 87 87 86 85 85 85 86 86
67 71 77 86 93 99 104 109 112 114 115 116 117 117 115 114 114 113 113 112 112 111 110 109 109 110 112 113 112 111 109 108 108 107 107 105 104 103 101 100 100 100 99 99 99 100 100 99 98 96 94 92 90 90 90 89 89 89 89 89 88 87 87 86 87 87 86 85 82 80 80 82 83 85 86 86 86 87 87 87 87 87 87 88 88 89 90
66 69 73 80 88 95 101 106 111 114 116 116 117 118 118 117 116 116 115 115 114 114 113 113 112 112 112 113 114 115 114 113 112 112 111 110 108 106 105 103 102 102 101 100 100 101 102 101 99 97 95 94 93 93 92 92 91 90 90 90 90 89 89 89 89 89 89 88 85 83 82 81 82 83 84 85 85 86 86 87 87 87 88 90 91 93 94
62 67 70 75 82 90 97 103 107 112 115 116 117 118 120 119 119 118 118 118 117 117 116 115 115 115 114 115 115 116 117 117 117 116 116 115 113 111 109 108 106 105 104 102 101 100 101 101 101 101 99 98 96 96 95 94 93 92 92 92 92 92 93 93 92 92 91 91 90 90 89 88 87 87 87 87 87 87 88 89 89 90 91 93 94 95 96
56 63 68 72 76 83 91 98 104 109 113 116 117 118 119 121 121 121 120 120 120 120 119 118 117 116 116 116 116 117 118 119 119 119 120 119 118 116 114 113 111 110 108 106 104 102 100 99 99 101 101 101 100 99 98 96 95 95 96 96 96 97 98 98 98 97 96 95 94 94 93 93 92 92 92 92 91 91 92 92 92 93 94 95 95 95 96
52 57 63 68 72 77 83 91 98 105 110 114 116 117 118 120 121 122 123 123 122 122 121 120 119 118 118 117 117 118 119 120 121 121 121 122 122 121 119 117 116 114 112 110 109 107 104 102 101 102 102 102 102 102 102 100 99 99 100 100 101 101 102 102 103 103 102 101 99 98 97 95 94 94 94 94 95 95 96 96 95 95 96 96 96 96 95
51 54 58 63 68 73 77 83 90 97 104 110 114 117 118 119 120 121 123 123 124 124 123 122 121 121 120 119 119 118 119 119 120 122 123 123 124 124 123 121 119 118 116 115 112 110 108 107 107 107 107 106 106 105 106 105 105 105 105 105 105 105 105 105 106 106 104 102 101 100 100 99 99 99 98 99 100 100 101 101 100 99 98 98 98 98 98
49 52 55 58 63 68 73 78 82 88 95 103 109 114 118 119 120 120 121 122 123 123 124 124 123 123 123 122 122 121 121 120 120 121 122 123 125 125 126 125 124 122 121 119 117 114 112 111 112 113 113 113 111 110 110 110 110 110 110 110 109 108 107 107 107 108 107 105 103 102 101 101 101 102 103 104 106 106 106 105 105 104 103 103 102 103 102
47 50 53 55 58 63 68 73 77 81 86 92 100 107 114 118 120 120 120 120 121 122 123 124 125 125 125 125 124 124 124 123 122 121 121 122 123 125 126 127 127 126 125 124 122 120 118 116 115 115 116 117 116 116 115 114 114 114 114 114 114 113 111 109 108 109 109 108 107 105 104 103 103 103 106 109 111 112 111 110 109 109 108 108 108 107 107
44 47 50 53 56 59 62 67 72 76 80 84 89 96 103 110 115 119 121 121 121 121 122 123 125 126 126 126 126 126 126 125 125 124 123 122 122 122 124 126 127 128 128 127 126 125 123 122 120 119 119 119 120 120 120 118 117 118 119 120 119 118 116 114 112 112 112 112 111 110 109 109 109 109 111 114 117 117 116 115 114 113 112 112 112 111 111
Wind_Direction
221 223 221 219 218 219 220 219 219 219 218 216 214 212 210 208 206 206 205 205 211 216 216 216 219 223 224 223 222 224 224 224 225 227 227 228 228 229 230 231 233 233 234 236 238 240 243 245 248 250 252 253 254 253 253 252 249 247 246 246 246 245 244 242 240 239 240 241 241 241 242 244 244 244 241 239 237 237 239 242 244 246 246 246 246 245 246
219 222 222 220 218 218 219 219 218 218 218 216 214 212 210 208 206 206 205 207 212 216 215 215 217 220 223 223 222 223 224 223 224 226 227 228 228 229 230 231 233 235 236 237 239 241 244 246 248 250 252 253 252 252 253 252 249 247 245 245 245 245 244 243 241 240 240 242 244 243 242 242 244 246 245 243 241 239 239 241 243 245 246 246 246 246 247
218 220 222 221 218 218 218 219 218 217 217 215 213 212 210 207 206 206 205 207 214 217 215 215 216 218 221 222 220 221 222 222 223 224 226 227 228 228 228 230 232 234 236 238 240 242 244 245 247 249 251 253 253 254 254 252 250 248 246 245 244 244 244 244 243 241 240 241 243 244 244 243 243 245 246 245 243 241 240 241 241 243 246 247 247 248 248
216 218 220 220 218 217 217 218 218 217 216 214 213 211 210 207 205 206 206 208 215 217 215 215 216 216 219 221 220 219 220 221 222 223 225 226 228 228 228 228 230 233 236 239 241 242 243 244 246 249 251 253 254 254 253 251 250 248 246 245 244 244 244 245 244 243 241 240 241 242 244 244 243 244 245 246 245 243 242 241 241 242 244 246 247 248 249
215 217 219 219 218 217 216 217 217 216 215 213 212 211 210 207 205 206 207 209 216 217 214 214 216 216 218 220 220 219 219 219 221 222 224 226 227 228 229 229 230 233 236 239 241 243 244 245 246 248 250 252 253 253 252 251 250 248 246 245 245 245 245 245 244 243 242 240 240 241 242 244 244 244 244 245 244 244 244 244 243 242 243 244 246 247 249
213 216 217 218 218 216 215 215 216 216 214 212 212 210 209 207 205 206 207 210 216 217 213 214 216 216 217 219 220 219 218 219 220 221 223 225 227 229 229 230 231 233 236 239 242 244 246 247 247 249 251 252 253 253 254 254 252 249 247 246 245 244 244 244 244 244 243 241 240 240 241 243 245 245 244 243 243 244 245 245 245 245 245 245 246 247 249
211 214 216 217 217 216 215 215 216 215 213 212 211 210 209 207 206 206 207 211 216 216 212 213 216 216 216 218 219 219 219 219 220 221 222 224 226 228 229 230 232 234 236 239 243 246 248 249 250 251 252 252 252 253 253 252 251 249 246 245 243 243 243 243 244 244 243 242 241 240 240 242 244 245 244 244 244 244 245 246 247 248 249 249 248 248 249
209 212 215 216 215 214 214 215 215 214 213 211 210 209 208 207 206 206 207 211 216 216 212 213 216 216 217 218 218 219 220 220 220 221 222 223 225 227 229 231 233 235 236 238 241 243 246 247 249 250 250 249 250 250 249 249 248 247 245 243 243 242 242 243 243 243 242 241 240 239 239 241 243 244 244 245 245 246 246 247 248 249 251 251 251 251 252
208 211 213 215 214 212 213 214 214 213 212 211 209 208 207 206 206 206 208 212 216 216 212 212 215 217 217 217 218 218 220 220 221 221 222 224 226 227 229 231 233 235 237 238 241 243 244 245 247 248 249 249 249 249 249 248 247 246 245 243 242 242 242 242 241 241 240 240 239 238 238 239 241 243 244 245 245 247 248 248 249 249 251 252 253 254 254
207 209 211 213 212 211 212 214 213 212 211 210 209 207 206 205 205 206 208 211 215 216 212 212 215 217 217 217 218 218 219 221 221 222 222 224 226 227 229 230 232 234 235 237 240 242 244 245 247 248 250 250 251 250 249 248 247 246 245 243 242 242 242 241 241 240 239 238 238 237 237 238 240 242 244 245 245 247 248 249 249 250 251 252 253 253 253
206 208 209 211 211 210 211 213 213 211 210 209 209 207 206 205 205 205 207 211 214 215 213 212 214 216 217 218 218 219 219 221 222 222 222 224 225 227 228 230 231 233 234 235 237 240 242 244 246 248 249 250 250 249 248 247 246 246 244 243 242 242 242 242 242 241 240 239 238 237 237 238 239 242 243 245 245 247 249 250 249 250 251 251 251 252 252
205 206 208 210 210 209 209 212 212 210 209 208 208 207 205 204 205 205 207 210 213 214 214 213 214 216 217 218 219 219 220 221 222 223 223 224 224 226 227 229 231 232 233 235 236 239 241 243 244 246 247 248 248 247 247 246 246 245 244 242 242 242 243 243 243 243 242 241 239 238 237 238 239 241 243 244 245 247 249 250 250 250 250 251 252 253 253
203 204 206 208 209 208 208 210 211 210 208 207 207 207 205 204 205 206 207 210 213 214 214 214 214 215 217 218 219 220 221 222 223 223 224 224 225 225 227 228 230 231 232 233 235 237 239 241 243 244 246 247 247 246 246 246 245 245 244 243 243 243 244 244 244 243 243 242 241 240 239 238 239 240 242 244 245 246 248 250 250 250 251 252 253 254 255
200 201 204 207 208 207 207 208 210 209 207 206 206 206 205 204 205 206 207 209 212 213 214 215 215 215 216 218 219 220 221 222 223 224 225 225 226 226 227 228 229 230 231 232 233 235 237 239 241 243 244 246 246 246 245 245 245 245 245 245 244 244 245 245 245 244 244 244 243 242 241 240 239 240 241 243 245 246 248 250 251 251 252 253 254 255 255
197 199 202 205 206 205 205 206 208 208 206 205 205 205 205 204 205 205 206 209 211 213 214 215 216 215 216 218 219 219 221 222 223 224 225 226 227 227 228 228 228 228 229 231 231 233 235 238 239 241 242 243 244 244 244 244 245 246 246 246 245 245 245 246 246 247 246 246 245 244 243 241 240 240 241 243 244 246 247 249 251 252 252 253 254 255 255
195 197 201 203 204 204 203 205 206 207 205 204 203 204 204 204 204 205 206 208 211 212 214 216 216 215 216 218 218 219 221 222 222 224 225 226 227 228 229 229 229 228 229 229 229 231 234 237 238 239 240 241 242 243 243 244 245 245 245 246 246 246 246 246 246 247 246 246 245 243 242 241 240 240 240 241 242 244 246 248 249 250 251 252 253 253 254
194 197 200 202 202 202 202 203 205 205 204 203 203 203 204 204 204 205 206 208 211 212 213 215 216 216 216 217 218 219 220 221 222 224 225 226 227 228 229 230 229 229 228 227 226 229 233 236 237 238 238 239 240 242 243 244 244 244 244 245 245 245 245 244 244 244 244 244 243 243 242 241 240 239 239 240 241 242 244 245 247 248 249 250 251 252 253
193 196 199 200 201 201 201 201 203 203 203 202 202 202 203 203 204 205 205 208 210 212 213 215 216 217 217 218 218 219 220 220 221 223 225 226 227 228 229 229 229 228 227 225 224 227 232 235 236 237 237 237 239 241 242 243 243 243 243 244 245 245 245 245 244 245 244 244 243 243 242 241 240 239 239 239 240 241 242 244 245 246 247 249 251 252 254
193 196 198 199 199 200 199 199 200 201 202 202 201 201 202 202 203 204 205 207 210 211 213 215 217 217 218 218 218 218 219 219 221 223 225 226 226 227 227 228 228 227 226 225 223 226 231 234 235 236 237 237 239 240 242 243 243 244 244 245 245 246 247 247 247 247 247 246 245 244 242 241 240 239 238 238 239 240 242 243 245 247 249 251 253 254 256
194 197 198 198 198 198 197 197 198 199 201 201 201 200 201 201 202 204 205 207 209 209 211 215 217 217 218 219 219 218 218 218 219 222 224 225 225 226 226 227 227 227 226 224 223 225 230 234 235 236 237 237 238 240 242 243 243 244 246 247 247 247 248 248 249 249 248 247 246 245 243 242 240 240 239 239 239 241 242 244 246 248 250 252 254 255 256
196 198 198 198 197 196 194 195 196 197 199 200 200 200 200 200 201 203 204 206 207 207 208 213 216 217 217 218 219 218 218 217 218 220 223 225 225 225 226 226 226 226 226 224 223 224 229 233 235 236 236 237 239 241 242 243 243 245 246 247 248 249 249 249 249 248 247 246 246 245 243 242 241 241 241 241 241 242 243 244 246 248 250 252 253 254 255
196 199 198 197 196 194 192 193 194 196 198 199 198 198 199 200 201 202 203 205 206 206 208 212 215 216 216 218 219 218 218 217 217 219 222 224 225 225 225 226 227 227 227 226 224 225 228 232 235 236 236 237 239 241 243 243 244 245 246 246 247 248 249 249 248 247 247 246 245 244 243 242 242 242 242 243 243 244 244 245 247 248 250 251 252 253 254
197 199 199 197 194 192 191 191 193 194 196 197 197 197 199 200 200 201 203 204 205 206 208 211 214 214 215 217 218 218 218 218 217 219 221 223 225 226 226 226 226 227 228 228 227 226 228 231 234 237 237 237 238 241 243 244 245 245 246 246 246 247 247 247 247 247 247 247 246 246 245 244 244 245 245 246 246 247 247 247 248 249 250 251 252 253 254
198 199 198 196 192 190 189 190 191 193 195 195 195 195 198 199 200 201 202 202 203 205 207 209 212 213 213 215 216 216 217 217 217 218 220 222 224 226 226 226 226 227 228 229 229 229 230 231 234 237 238 238 239 241 243 245 245 246 246 246 246 247 247 246 246 246 246 246 246 246 245 244 244 245 246 247 248 248 247 247 248 249 250 251 252 253 254
198 198 196 194 191 188 188 189 190 192 194 193 193 194 196 198 200 201 201 199 200 204 206 207 211 213 212 213 214 214 215 217 217 218 220 221 223 225 226 226 226 226 227 229 230 230 231 233 235 237 239 240 240 241 242 244 244 245 246 246 246 247 247 246 246 245 245 245 245 244 244 244 244 244 245 246 247 247 246 246 247 247 248 249 250 251 253
199 197 195 192 188 187 188 189 190 191 192 191 191 192 194 197 198 199 199 197 197 202 206 207 210 213 213 213 213 213 214 215 216 218 219 221 222 224 226 227 227 227 227 228 229 230 232 233 235 237 239 240 241 242 242 243 243 244 245 245 246 246 247 247 247 246 245 245 244 243 243 244 245 246 246 247 248 248 248 249 249 249 250 250 251 252 253
199 196 193 189 186 186 187 189 190 191 191 190 191 192 193 196 197 197 197 195 194 199 205 208 209 212 213 213 213 213 213 214 216 217 219 221 222 223 225 227 228 228 228 228 229 230 231 233 235 237 239 240 241 242 242 242 243 243 244 244 245 246 246 246 247 247 246 246 245 244 243 243 245 246 247 247 248 249 250 251 252 252 253 253 253 254 254
198 195 191 187 185 185 187 188 189 191 190 190 191 192 194 195 196 196 194 191 191 195 203 207 210 212 213 213 213 213 213 214 216 218 220 221 222 223 225 227 229 230 231 231 231 231 232 233 235 237 239 240 241 242 243 243 243 242 243 243 243 244 245 246 246 246 245 245 245 244 244 244 245 246 247 248 248 250 250 252 252 253 254 255 255 255 255
196 193 190 187 185 185 187 188 188 189 191 192 192 193 195 196 196 195 194 190 188 192 198 203 208 211 213 213 214 214 214 214 216 218 221 222 223 224 225 227 230 232 233 234 234 235 236 236 237 238 239 241 242 243 243 244 243 243 243 243 243 244 244 245 245 244 244 244 244 244 244 245 245 246 247 248 249 250 251 252 253 254 255 256 257 257 257
194 191 188 187 186 186 187 187 187 188 190 192 193 193 194 196 196 195 193 190 188 190 194 198 203 207 210 211 213 213 214 214 216 218 222 225 226 227 228 228 230 232 234 236 237 238 239 240 240 239 239 240 241 242 243 243 243 243 243 243 243 243 244 244 244 244 243 243 243 244 244 245 246 247 248 249 250 251 252 253 254 255 256 257 258 259 259
192 189 188 186 186 186 186 186 186 188 190 192 193 192 192 194 196 194 191 189 189 190 192 195 198 201 204 206 208 210 211 213 215 216 220 224 227 228 228 228 228 231 233 236 238 240 241 241 241 240 240 239 238 239 240 241 243 244 244 244 244 244 244 244 244 244 244 243 244 244 245 245 246 246 247 249 250 250 251 252 253 254 255 254 255 255 256
190 188 187 186 186 187 186 186 186 188 189 191 193 193 192 192 194 193 191 189 189 190 191 193 197 200 201 202 202 205 208 211 212 214 218 223 225 225 224 225 226 228 231 234 238 240 241 241 240 238 237 237 237 237 238 239 241 243 244 245 245 245 244 244 244 244 244 244 244 245 246 246 246 247 247 248 249 250 251 251 251 252 252 251 252 252 252
190 188 187 186 186 186 186 186 186 187 187 189 192 195 194 194 193 192 190 189 189 190 191 192 195 200 202 202 202 203 204 206 208 211 215 221 223 221 220 222 225 226 228 230 232 233 233 235 235 233 232 233 235 236 237 239 240 241 243 244 245 245 245 244 244 245 245 245 245 246 246 247 247 247 248 249 250 251 251 251 251 251 252 252 251 252 252
189 188 187 187 187 187 186 186 187 187 187 188 191 194 195 195 195 193 191 190 190 191 192 192 194 198 201 202 203 204 203 203 205 208 212 216 219 218 218 219 222 223 224 226 228 228 228 230 231 230 229 231 235 237 239 240 241 242 242 243 244 245 244 243 243 244 245 246 246 247 247 247 247 248 248 249 250 252 253 253 252 253 254 254 254 253 253
189 189 188 188 188 188 187 187 188 189 188 188 190 192 194 194 194 193 192 192 192 192 192 192 193 196 198 200 201 203 202 203 205 208 210 213 215 216 216 217 219 220 221 224 226 228 228 230 231 230 230 233 237 239 241 242 243 243 242 241 241 242 242 242 243 244 245 246 247 247 248 248 248 249 249 249 249 251 252 253 254 255 256 257 257 256 255
190 189 189 189 189 189 189 189 189 190 190 189 190 192 193 193 193 192 193 194 194 194 194 193 194 195 197 198 200 202 202 203 206 208 210 211 212 212 211 213 215 218 220 223 226 227 228 230 232 233 234 236 237 238 240 241 242 241 240 240 240 241 242 243 244 245 246 247 248 248 248 249 250 250 250 250 250 251 252 253 255 256 257 258 259 259 258
192 191 191 191 191 191 190 190 191 191 191 190 190 192 194 194 192 191 193 194 195 194 194 194 195 196 198 199 200 202 203 204 205 207 208 210 211 210 208 208 210 214 218 221 224 226 226 227 229 231 233 235 236 236 239 241 241 240 240 240 240 241 242 244 246 248 248 249 249 249 249 250 251 251 251 251 251 252 253 254 254 255 256 257 258 258 258
193 193 193 193 193 192 192 192 192 192 192 191 191 192 194 194 193 192 193 194 195 195 194 195 196 198 199 200 201 202 203 204 206 207 208 209 211 211 209 208 209 211 214 217 221 223 225 225 225 226 228 231 232 233 235 237 238 239 240 241 242 243 244 245 247 249 250 252 252 252 251 251 251 252 252 252 252 252 253 254 255 255 255 256 257 258 258
192 194 195 196 195 194 194 193 193 193 193 192 192 193 194 195 194 193 194 195 195 196 196 196 197 199 200 201 202 203 204 205 207 208 209 209 210 211 211 211 211 212 214 216 218 221 222 223 223 224 226 228 229 230 231 233 234 236 238 240 242 244 246 247 249 250 252 253 254 254 253 253 253 252 252 252 252 253 253 254 255 255 256 256 257 258 258
193 193 195 197 198 196 195 195 195 194 194 193 193 195 196 195 194 194 195 196 196 197 198 198 198 200 202 202 203 204 204 205 206 208 210 211 211 211 212 213 213 215 216 217 219 221 222 223 224 226 227 229 231 232 233 235 236 237 238 240 243 245 247 249 251 252 253 254 254 254 254 254 254 254 254 254 253 254 254 254 255 255 256 257 258 259 259
199 196 195 197 199 199 198 197 197 196 195 195 195 196 197 196 196 195 196 197 198 199 200 201 201 201 203 203 204 204 205 205 205 206 210 212 213 213 214 215 216 217 218 219 220 221 222 224 226 227 229 230 232 233 235 236 238 238 239 240 243 245 247 249 251 252 253 254 254 254 253 253 253 254 254 255 255 256 256 256 257 257 257 258 259 260 261
206 202 199 198 199 200 200 199 199 199 198 197 197 197 198 198 198 198 198 198 199 200 202 203 203 203 204 204 205 205 206 206 206 206 208 211 213 215 217 218 218 220 221 222 222 223 224 224 225 227 228 230 231 232 233 234 236 237 238 239 241 244 247 249 250 250 251 252 252 253 253 253 253 253 254 254 255 256 256 257 258 259 259 260 261 262 263
212 208 204 202 201 201 201 201 201 201 201 200 199 199 200 201 201 201 201 201 201 202 203 204 205 205 206 206 206 206 206 207 208 208 208 210 212 214 216 218 220 222 223 224 224 225 226 227 227 227 228 230 231 232 233 233 234 236 238 240 242 244 246 247 249 249 250 251 252 253 254 254 253 253 254 254 255 255 256 257 258 259 260 261 262 263 264
214 212 209 207 205 204 203 202 203 203 204 203 203 202 202 203 203 204 204 204 204 204 204 205 206 207 207 208 208 208 208 209 209 210 210 211 212 213 214 216 219 221 223 225 226 226 227 228 228 228 228 230 231 233 234 235 236 238 239 242 244 245 246 247 248 250 251 251 251 252 253 253 253 254 254 255 256 256 257 257 258 259 260 261 262 262 263
214 215 213 211 209 207 206 205 205 205 206 206 206 205 205 205 205 206 206 207 207 207 207 207 208 208 209 210 210 210 210 211 211 211 212 212 213 214 214 215 217 219 222 224 226 227 228 228 228 227 228 229 231 232 234 236 237 239 241 243 245 246 246 247 249 250 252 251 250 249 250 251 253 254 255 255 255 256 257 258 258 259 259 260 261 261 262
213 215 216 214 212 210 209 208 208 207 208 209 208 208 207 207 207 208 208 209 209 210 210 210 210 210 211 211 212 212 213 213 213 214 214 214 215 215 216 216 216 217 219 222 224 226 228 228 228 228 228 229 230 231 233 235 236 239 241 243 245 246 247 248 249 251 252 253 252 252 252 252 253 254 255 256 256 256 256 257 257 258 259 259 259 260 261
214 214 216 216 215 213 212 211 211 210 210 210 211 211 210 210 210 210 210 211 212 212 213 213 214 214 214 213 213 214 214 215 215 216 216 216 217 217 218 218 218 218 219 220 221 223 225 226 227 229 230 230 231 232 233 234 236 238 240 242 244 246 247 248 250 251 252 253 253 253 254 254 254 255 256 257 257 257 256 256 256 256 257 259 260 260 261
218 215 215 216 217 216 215 214 213 213 212 212 213 213 213 213 213 213 213 213 214 215 216 216 217 217 217 217 217 216 216 216 217 217 218 218 219 219 220 220 220 220 220 221 221 223 224 225 227 228 230 232 233 233 234 235 236 237 239 241 243 245 246 248 250 251 252 253 253 254 254 254 254 255 255 256 256 256 257 257 257 256 257 258 260 261 262
221 219 217 216 217 217 217 217 216 215 215 214 215 215 216 216 216 216 216 216 217 218 218 219 220 220 220 220 220 220 219 219 219 219 219 220 221 221 222 222 222 223 223 223 223 224 225 227 228 229 231 232 233 234 235 236 237 237 238 240 242 243 245 246 248 249 251 252 253 253 254 254 255 255 255 255 255 256 258 258 259 259 259 260 261 261 262
222 222 220 218 217 217 218 219 219 218 217 217 216 217 217 218 218 218 218 219 219 220 220 221 222 222 222 222 222 223 223 222 222 221 221 222 222 223 224 224 225 225 225 224 224 225 226 227 228 229 230 232 233 234 236 237 237 238 238 239 241 242 244 245 247 248 250 251 252 253 253 254 255 257 257 256 256 256 257 258 259 260 260 261 262 262 263
222 222 222 221 219 218 218 219 220 220 220 219 219 219 219 219 220 220 221 221 221 221 222 222 222 223 223 223 224 224 225 225 225 225 225 224 224 224 225 225 226 226 226 226 226 226 226 227 227 229 230 231 233 234 235 237 238 238 239 239 240 241 242 244 246 248 249 250 251 251 250 251 253 254 255 256 256 257 257 257 258 259 260 261 262 263 264
223 222 222 222 221 220 219 219 220 221 221 221 221 221 221 221 221 222 222 223 223 223 223 223 224 224 224 225 225 226 226 227 227 228 228 228 227 227 227 227 227 228 228 228 227 227 227 227 227 228 229 231 232 234 235 236 237 239 239 240 240 241 242 243 245 246 247 248 249 249 249 250 251 251 252 254 256 257 258 258 259 260 261 261 262 263 264
Height
10590 10600 10614 10629 10642 10651 10660 10674 10686 10698 10712 10729 10745 10760 10771 10782 10794 10801 10808 10813 10807 10802 10810 10817 10818 10824 10833 10843 10853 10859 10866 10874 10878 10883 10888 10893 10897 10900 10903 10907 10910 10913 10915 10917 10920 10921 10923 10927 10929 10932 10934 10937 10939 10941 10943 10945 10947 10950 10951 10953 10955 10957 10959 10960 10962 10963 10965 10968 10970 10972 10974 10975 10977 10978 10979 10981 10983 10985 10986 10988 10989 10992 10994 10995 10996 10997 10998
10581 10590 10602 10618 10632 10641 10649 10663 10676 10686 10701 10721 10737 10750 10762 10775 10787 10793 10799 10803 10796 10792 10801 10809 10813 10820 10828 10838 10848 10854 10860 10867 10873 10878 10882 10886 10889 10893 10898 10901 10904 10907 10910 10912 10914 10916 10919 10922 10925 10927 10929 10932 10935 10937 10938 10941 10943 10945 10947 10948 10950 10952 10954 10956 10958 10960 10962 10964 10966 10969 10970 10972 10973 10974 10976 10977 10979 10980 10982 10984 10986 10988 10989 10991 10992 10993 10994
10573 10579 10589 10604 10619 10630 10640 10652 10664 10676 10692 10712 10728 10740 10753 10766 10778 10784 10790 10791 10784 10783 10794 10805 10811 10818 10823 10831 10840 10847 10853 10861 10866 10871 10876 10879 10882 10887 10892 10896 10898 10901 10903 10906 10909 10912 10914 10918 10920 10922 10924 10927 10930 10932 10934 10936 10938 10940 10942 10943 10945 10947 10949 10951 10954 10957 10959 10960 10962 10964 10966 10968 10969 10970 10972 10974 10975 10976 10978 10980 10982 10983 10985 10986 10988 10989 10991
10562 10567 10574 10587 10605 10619 10630 10641 10653 10668 10685 10703 10719 10731 10742 10757 10770 10776 10779 10781 10774 10775 10791 10803 10808 10814 10819 10824 10832 10839 10846 10853 10858 10864 10868 10872 10876 10880 10885 10890 10893 10895 10898 10900 10903 10906 10909 10912 10915 10917 10919 10922 10925 10928 10929 10931 10933 10935 10937 10939 10940 10942 10944 10947 10950 10953 10954 10956 10958 10960 10962 10964 10965 10966 10968 10969 10971 10972 10973 10975 10977 10979 10980 10982 10984 10985 10987
10549 10553 10560 10575 10591 10606 10619 10632 10645 10661 10679 10695 10708 10720 10733 10749 10761 10765 10770 10772 10765 10768 10788 10799 10802 10809 10815 10818 10826 10833 10839 10845 10850 10856 10861 10865 10869 10874 10879 10884 10887 10890 10893 10894 10897 10899 10903 10907 10909 10911 10914 10917 10920 10922 10924 10926 10928 10930 10932 10934 10936 10938 10941 10943 10946 10947 10949 10952 10953 10955 10957 10959 10961 10963 10964 10965 10966 10967 10969 10971 10973 10974 10976 10977 10979 10981 10982
10537 10541 10549 10563 10577 10594 10613 10628 10638 10651 10669 10684 10697 10711 10726 10740 10750 10755 10763 10763 10756 10764 10786 10793 10796 10805 10810 10813 10820 10826 10831 10837 10842 10847 10853 10857 10863 10868 10873 10878 10882 10885 10887 10889 10891 10893 10897 10901 10903 10906 10910 10912 10915 10917 10919 10921 10923 10926 10928 10930 10932 10934 10937 10939 10940 10942 10945 10947 10948 10951 10953 10955 10957 10958 10959 10960 10961 10963 10965 10967 10968 10969 10971 10973 10975 10976 10978
10524 10530 10539 10550 10568 10592 10613 10621 10626 10640 10659 10673 10687 10703 10718 10730 10741 10748 10754 10752 10747 10760 10779 10785 10789 10798 10803 10807 10815 10819 10823 10829 10834 10839 10845 10851 10856 10861 10866 10872 10876 10879 10882 10884 10886 10888 10892 10895 10898 10902 10905 10908 10910 10912 10914 10916 10918 10920 10922 10925 10927 10930 10932 10934 10936 10938 10940 10941 10944 10946 10948 10950 10952 10952 10953 10955 10957 10958 10960 10962 10963 10965 10967 10969 10970 10972 10973
10513 10521 10530 10543 10567 10592 10604 10607 10614 10631 10650 10664 10679 10695 10709 10721 10732 10740 10745 10743 10742 10754 10771 10778 10782 10790 10795 10801 10808 10813 10818 10823 10827 10833 10838 10844 10849 10854 10860 10865 10869 10873 10877 10879 10881 10884 10887 10890 10893 10896 10900 10902 10904 10907 10908 10910 10912 10914 10917 10919 10922 10924 10927 10929 10931 10932 10934 10936 10939 10941 10943 10945 10946 10947 10948 10950 10952 10954 10956 10957 10959 10960 10962 10964 10965 10967 10968
10505 10516 10526 10541 10563 10580 10586 10592 10605 10624 10641 10656 10673 10689 10701 10713 10724 10731 10737 10737 10736 10746 10763 10771 10775 10781 10788 10794 10801 10807 10812 10816 10821 10826 10831 10836 10842 10847 10854 10859 10863 10867 10871 10873 10877 10880 10882 10885 10888 10890 10894 10896 10899 10901 10903 10905 10907 10909 10911 10914 10916 10919 10921 10922 10924 10926 10928 10931 10933 10936 10938 10939 10940 10942 10943 10946 10948 10950 10951 10952 10954 10955 10957 10959 10961 10962 10964
10501 10510 10520 10534 10551 10565 10575 10585 10600 10619 10635 10650 10666 10681 10693 10704 10714 10722 10728 10729 10729 10740 10756 10764 10768 10773 10780 10787 10794 10801 10806 10810 10815 10820 10825 10830 10835 10841 10847 10852 10856 10860 10865 10868 10872 10875 10877 10881 10883 10886 10888 10891 10894 10896 10898 10900 10901 10903 10906 10908 10911 10913 10914 10916 10918 10920 10922 10925 10927 10930 10932 10933 10935 10937 10939 10941 10943 10945 10946 10948 10949 10951 10953 10954 10956 10957 10958
10496 10505 10515 10527 10542 10559 10572 10581 10595 10612 10627 10642 10657 10670 10682 10694 10703 10711 10719 10721 10723 10733 10747 10755 10760 10766 10774 10782 10788 10795 10801 10805 10809 10815 10820 10824 10829 10835 10840 10845 10849 10854 10858 10863 10867 10869 10872 10876 10878 10880 10883 10885 10888 10890 10892 10894 10896 10898 10900 10903 10905 10907 10908 10910 10912 10915 10917 10920 10922 10924 10926 10927 10929 10932 10934 10936 10938 10940 10941 10942 10944 10946 10947 10949 10950 10951 10953
10491 10501 10511 10522 10535 10552 10564 10575 10589 10605 10620 10634 10647 10660 10674 10687 10695 10703 10710 10713 10717 10727 10739 10747 10754 10761 10768 10776 10782 10789 10795 10799 10804 10810 10814 10818 10823 10828 10833 10838 10843 10848 10853 10858 10861 10864 10867 10870 10872 10874 10876 10879 10882 10884 10886 10889 10890 10891 10894 10897 10899 10901 10903 10905 10907 10909 10912 10914 10916 10918 10920 10922 10924 10927 10929 10931 10933 10934 10936 10937 10939 10940 10941 10943 10944 10946 10947
10484 10496 10506 10516 10528 10544 10557 10568 10581 10596 10612 10625 10637 10654 10671 10683 10689 10697 10704 10708 10712 10721 10731 10739 10746 10755 10762 10769 10776 10783 10788 10793 10799 10804 10809 10813 10817 10822 10827 10832 10837 10842 10847 10851 10855 10858 10862 10865 10866 10868 10871 10874 10876 10879 10881 10883 10883 10885 10888 10892 10894 10896 10898 10900 10902 10904 10906 10908 10910 10912 10914 10917 10919 10921 10924 10926 10927 10929 10931 10932 10934 10935 10936 10937 10939 10940 10942
10477 10489 10499 10507 10520 10537 10550 10562 10574 10589 10604 10618 10634 10652 10667 10674 10681 10691 10698 10702 10707 10716 10724 10731 10739 10750 10757 10762 10769 10776 10781 10786 10793 10799 10803 10808 10812 10817 10821 10826 10831 10836 10841 10845 10849 10854 10857 10859 10861 10863 10866 10869 10871 10874 10875 10876 10877 10880 10884 10887 10889 10891 10892 10894 10896 10898 10900 10903 10905 10907 10909 10911 10914 10916 10918 10920 10922 10924 10925 10927 10928 10929 10931 10932 10934 10935 10937
10470 10482 10489 10498 10513 10530 10544 10556 10568 10582 10597 10614 10632 10647 10656 10664 10674 10684 10691 10696 10701 10709 10718 10724 10733 10744 10750 10753 10762 10770 10774 10780 10787 10792 10797 10802 10806 10811 10815 10820 10825 10830 10834 10839 10844 10848 10851 10853 10855 10859 10862 10864 10867 10868 10869 10870 10872 10876 10880 10881 10883 10885 10887 10889 10891 10893 10895 10897 10899 10901 10903 10906 10908 10910 10913 10915 10917 10918 10920 10921 10922 10924 10925 10927 10928 10930 10931
10465 10475 10482 10493 10508 10524 10537 10550 10562 10576 10592 10610 10624 10635 10645 10657 10667 10675 10684 10690 10695 10703 10712 10718 10726 10736 10742 10747 10756 10763 10768 10774 10781 10786 10791 10796 10801 10805 10809 10814 10818 10823 10828 10833 10839 10843 10845 10847 10850 10854 10857 10859 10861 10862 10863 10865 10869 10872 10874 10876 10877 10879 10881 10883 10885 10887 10889 10891 10893 10895 10897 10900 10902 10905 10907 10909 10911 10912 10913 10915 10916 10918 10919 10921 10923 10924 10926
10464 10471 10479 10490 10505 10519 10532 10545 10558 10573 10590 10604 10616 10627 10639 10651 10660 10669 10679 10686 10690 10698 10707 10713 10721 10729 10735 10742 10750 10757 10762 10770 10776 10780 10784 10790 10795 10799 10803 10808 10812 10817 10822 10828 10833 10837 10839 10841 10844 10848 10851 10854 10855 10856 10858 10861 10864 10867 10869 10870 10871 10873 10875 10877 10879 10880 10882 10885 10887 10889 10891 10894 10896 10898 10901 10902 10904 10905 10907 10908 10909 10911 10913 10915 10916 10918 10920
10460 10466 10475 10487 10502 10515 10529 10542 10555 10570 10584 10596 10607 10620 10633 10644 10653 10664 10673 10680 10685 10693 10701 10708 10715 10722 10730 10737 10745 10751 10757 10764 10770 10774 10778 10783 10789 10793 10797 10802 10806 10811 10816 10822 10827 10831 10832 10834 10838 10842 10845 10847 10849 10851 10853 10855 10858 10861 10863 10864 10865 10867 10869 10871 10873 10874 10876 10878 10881 10883 10886 10888 10890 10892 10894 10896 10897 10898 10900 10901 10902 10905 10907 10909 10911 10913 10915
10456 10462 10470 10482 10496 10510 10524 10538 10552 10566 10579 10590 10601 10613 10625 10636 10646 10657 10667 10674 10680 10689 10697 10703 10709 10717 10725 10733 10739 10745 10752 10759 10765 10769 10772 10777 10783 10787 10791 10796 10801 10806 10811 10816 10821 10825 10826 10828 10832 10835 10838 10841 10844 10846 10847 10849 10852 10855 10857 10858 10860 10862 10864 10865 10867 10869 10871 10873 10875 10878 10880 10882 10884 10886 10887 10888 10890 10891 10893 10895 10897 10899 10902 10904 10906 10907 10909
10455 10460 10468 10479 10491 10504 10519 10534 10548 10561 10572 10584 10596 10608 10619 10630 10640 10651 10660 10668 10676 10686 10694 10699 10703 10712 10720 10727 10733 10740 10747 10754 10760 10763 10765 10770 10776 10781 10785 10790 10795 10800 10805 10810 10815 10819 10820 10822 10825 10828 10832 10835 10838 10840 10841 10843 10847 10849 10850 10852 10854 10857 10858 10860 10862 10864 10865 10867 10870 10872 10874 10875 10877 10879 10880 10882 10883 10885 10887 10889 10892 10894 10896 10898 10899 10901 10903
10453 10458 10466 10477 10488 10502 10517 10531 10544 10555 10567 10579 10592 10604 10615 10625 10634 10644 10653 10663 10673 10682 10689 10692 10697 10705 10714 10720 10726 10734 10742 10749 10754 10757 10759 10764 10770 10775 10780 10785 10789 10794 10799 10804 10809 10813 10814 10816 10818 10822 10826 10829 10832 10834 10835 10838 10841 10843 10844 10846 10848 10850 10853 10855 10856 10858 10860 10862 10864 10866 10867 10869 10871 10872 10874 10875 10877 10879 10881 10884 10886 10887 10889 10891 10892 10894 10895
10449 10455 10463 10474 10487 10503 10517 10529 10541 10553 10564 10575 10587 10599 10609 10619 10628 10637 10648 10658 10666 10674 10681 10685 10690 10698 10707 10713 10720 10730 10739 10745 10749 10751 10753 10758 10764 10769 10775 10780 10784 10789 10793 10798 10803 10807 10808 10810 10812 10815 10819 10823 10826 10828 10829 10832 10835 10836 10838 10840 10842 10845 10847 10849 10850 10852 10854 10856 10858 10860 10861 10863 10864 10866 10867 10869 10871 10873 10875 10877 10879 10880 10882 10884 10885 10887 10889
10446 10452 10462 10475 10489 10504 10516 10527 10539 10550 10560 10571 10583 10594 10604 10614 10623 10632 10642 10652 10661 10669 10675 10680 10685 10692 10699 10706 10715 10726 10733 10737 10741 10745 10748 10752 10757 10763 10768 10773 10778 10782 10786 10791 10796 10800 10802 10804 10806 10809 10812 10816 10819 10822 10824 10826 10828 10830 10832 10834 10837 10839 10841 10843 10844 10846 10848 10850 10852 10854 10855 10857 10858 10859 10861 10863 10865 10867 10869 10871 10872 10873 10875 10877 10879 10881 10883
10443 10451 10462 10476 10490 10504 10516 10526 10536 10546 10556 10568 10580 10591 10600 10610 10619 10627 10635 10646 10657 10664 10669 10675 10680 10686 10693 10700 10708 10717 10723 10728 10734 10739 10743 10747 10751 10755 10760 10765 10770 10774 10779 10783 10787 10792 10795 10798 10801 10803 10806 10809 10813 10816 10818 10820 10822 10824 10826 10828 10830 10833 10835 10837 10839 10840 10842 10844 10846 10848 10850 10851 10852 10854 10855 10857 10859 10861 10863 10864 10866 10867 10869 10871 10873 10874 10876
10440 10450 10463 10477 10492 10504 10514 10523 10532 10541 10551 10564 10575 10586 10595 10604 10613 10621 10630 10641 10653 10660 10664 10670 10676 10681 10686 10692 10700 10707 10714 10721 10728 10732 10735 10739 10743 10746 10751 10756 10762 10767 10771 10775 10779 10784 10788 10792 10795 10797 10800 10803 10806 10809 10811 10814 10816 10818 10820 10822 10824 10827 10829 10831 10833 10835 10836 10838 10840 10842 10844 10845 10846 10848 10850 10851 10852 10854 10856 10858 10860 10861 10863 10865 10866 10868 10869
10441 10452 10466 10480 10494 10505 10513 10520 10528 10537 10548 10560 10570 10579 10587 10596 10606 10615 10625 10636 10647 10655 10661 10666 10670 10675 10679 10685 10692 10699 10706 10712 10718 10722 10727 10732 10735 10739 10742 10747 10753 10758 10763 10767 10771 10776 10780 10784 10788 10790 10794 10797 10799 10802 10805 10807 10810 10812 10814 10816 10818 10820 10822 10824 10826 10828 10830 10832 10834 10836 10838 10839 10840 10842 10843 10845 10846 10847 10849 10851 10853 10854 10856 10858 10860 10861 10862
10443 10456 10469 10483 10495 10503 10510 10518 10526 10534 10544 10554 10563 10571 10579 10588 10598 10608 10618 10628 10640 10650 10656 10660 10664 10669 10674 10679 10686 10693 10699 10704 10709 10714 10719 10724 10728 10731 10734 10738 10744 10750 10755 10759 10763 10768 10772 10777 10781 10784 10787 10790 10792 10795 10798 10800 10803 10805 10807 10809 10811 10813 10815 10817 10819 10821 10823 10825 10828 10830 10832 10833 10834 10835 10837 10839 10840 10841 10842 10844 10846 10848 10850 10851 10853 10854 10856
10446 10460 10472 10483 10492 10499 10506 10514 10524 10533 10542 10549 10556 10564 10573 10582 10591 10602 10611 10619 10629 10639 10647 10654 10659 10663 10669 10675 10681 10687 10693 10698 10703 10707 10712 10717 10721 10724 10728 10732 10736 10742 10747 10752 10757 10761 10765 10770 10774 10778 10781 10783 10786 10788 10791 10793 10796 10798 10800 10803 10805 10806 10808 10810 10812 10815 10817 10819 10821 10823 10825 10827 10828 10829 10831 10832 10834 10835 10836 10837 10839 10841 10843 10844 10846 10847 10849
10449 10461 10472 10481 10489 10496 10503 10511 10521 10530 10539 10547 10554 10562 10569 10576 10584 10594 10603 10611 10618 10626 10635 10645 10652 10658 10665 10672 10677 10682 10687 10693 10698 10703 10707 10710 10715 10719 10723 10726 10730 10734 10740 10745 10749 10754 10758 10763 10767 10771 10774 10777 10780 10782 10784 10786 10788 10791 10793 10795 10797 10799 10801 10803 10806 10808 10810 10812 10814 10816 10818 10820 10821 10823 10825 10826 10827 10829 10830 10831 10833 10835 10836 10837 10839 10841 10842
10450 10460 10470 10479 10487 10493 10500 10508 10517 10526 10534 10543 10552 10560 10567 10573 10579 10587 10596 10605 10611 10617 10624 10633 10641 10649 10658 10665 10671 10675 10681 10688 10695 10700 10704 10707 10711 10715 10719 10721 10724 10727 10732 10736 10741 10745 10750 10754 10759 10763 10766 10769 10772 10775 10777 10779 10780 10783 10785 10788 10790 10792 10794 10796 10799 10801 10803 10806 10808 10810 10811 10813 10815 10816 10818 10820 10821 10822 10823 10825 10827 10828 10830 10832 10833 10835 10837
10449 10458 10467 10476 10484 10490 10498 10506 10514 10522 10530 10538 10547 10555 10563 10569 10576 10583 10591 10598 10604 10610 10616 10623 10630 10638 10646 10655 10662 10669 10675 10682 10688 10694 10698 10701 10705 10710 10713 10716 10718 10721 10725 10729 10732 10736 10739 10744 10748 10753 10756 10759 10763 10766 10768 10771 10773 10775 10777 10780 10782 10785 10787 10789 10791 10794 10796 10798 10800 10802 10804 10806 10808 10810 10811 10813 10814 10816 10817 10819 10821 10823 10825 10826 10827 10828 10830
10448 10456 10464 10472 10480 10487 10494 10502 10510 10517 10526 10534 10542 10550 10557 10564 10570 10578 10585 10592 10598 10604 10610 10616 10622 10628 10634 10641 10649 10658 10666 10673 10679 10685 10690 10693 10697 10702 10707 10709 10712 10715 10718 10722 10725 10728 10731 10735 10739 10743 10746 10749 10753 10756 10760 10762 10765 10767 10769 10771 10774 10777 10779 10782 10784 10786 10788 10790 10793 10795 10797 10798 10800 10802 10804 10806 10808 10810 10812 10814 10816 10817 10818 10819 10820 10821 10823
10447 10453 10460 10468 10475 10482 10490 10498 10505 10512 10521 10529 10537 10544 10551 10558 10564 10571 10579 10585 10591 10597 10602 10608 10615 10622 10627 10632 10638 10645 10652 10660 10667 10675 10681 10685 10690 10695 10698 10701 10705 10708 10712 10716 10719 10721 10723 10727 10730 10734 10737 10740 10743 10747 10751 10754 10757 10759 10761 10763 10765 10768 10771 10773 10776 10778 10780 10782 10785 10787 10789 10791 10793 10795 10797 10799 10802 10804 10805 10807 10808 10809 10810 10812 10814 10815 10816
10444 10450 10457 10464 10470 10478 10485 10493 10500 10507 10515 10524 10532 10539 10546 10552 10559 10566 10572 10578 10584 10590 10595 10601 10608 10615 10621 10626 10631 10636 10642 10648 10655 10662 10668 10674 10681 10686 10689 10693 10697 10701 10705 10710 10713 10716 10718 10720 10722 10724 10727 10731 10735 10738 10742 10746 10748 10750 10752 10755 10757 10759 10762 10764 10767 10769 10772 10774 10776 10779 10781 10783 10785 10787 10789 10793 10797 10799 10798 10798 10799 10801 10802 10804 10806 10807 10808
10441 10447 10453 10459 10466 10473 10480 10487 10494 10502 10510 10518 10525 10532 10539 10546 10553 10559 10566 10572 10577 10583 10588 10594 10601 10607 10613 10618 10624 10629 10634 10640 10645 10651 10656 10662 10669 10675 10680 10686 10691 10693 10697 10702 10705 10708 10711 10714 10716 10718 10721 10724 10728 10731 10734 10737 10739 10742 10744 10746 10748 10750 10753 10755 10758 10760 10763 10765 10768 10770 10772 10774 10776 10778 10781 10785 10789 10790 10789 10789 10791 10792 10794 10796 10797 10798 10800
10439 10444 10449 10455 10461 10468 10475 10482 10488 10495 10503 10510 10518 10526 10533 10539 10545 10552 10558 10564 10570 10575 10581 10587 10593 10598 10604 10611 10616 10621 10626 10631 10637 10642 10647 10652 10657 10662 10668 10675 10682 10686 10690 10694 10696 10699 10703 10706 10709 10712 10715 10717 10720 10724 10726 10729 10731 10733 10735 10737 10739 10741 10744 10746 10749 10751 10754 10756 10758 10761 10763 10765 10767 10770 10772 10775 10778 10780 10781 10782 10783 10784 10786 10787 10788 10789 10791
10436 10440 10445 10451 10457 10463 10469 10476 10483 10489 10496 10503 10511 10519 10526 10532 10538 10544 10550 10556 10562 10568 10574 10580 10585 10590 10597 10602 10607 10612 10617 10622 10627 10631 10637 10642 10648 10652 10657 10662 10669 10676 10682 10686 10689 10692 10696 10699 10702 10705 10707 10710 10713 10716 10718 10721 10724 10725 10727 10729 10730 10732 10734 10737 10739 10742 10744 10747 10749 10752 10754 10756 10758 10760 10763 10765 10768 10770 10772 10773 10774 10776 10777 10778 10779 10780 10782
10431 10437 10442 10446 10452 10458 10464 10471 10477 10484 10491 10498 10505 10512 10519 10525 10530 10536 10541 10547 10553 10558 10565 10571 10577 10582 10587 10593 10598 10604 10609 10614 10618 10623 10627 10633 10639 10644 10648 10652 10657 10662 10669 10674 10678 10682 10686 10690 10693 10697 10700 10703 10705 10708 10711 10713 10715 10717 10718 10720 10721 10722 10725 10727 10730 10733 10735 10737 10740 10743 10745 10748 10750 10751 10753 10755 10758 10760 10762 10763 10765 10766 10768 10769 10770 10771 10772
10423 10431 10438 10443 10447 10453 10459 10466 10472 10478 10485 10492 10499 10505 10511 10517 10522 10527 10532 10537 10543 10549 10555 10561 10567 10573 10578 10583 10589 10595 10600 10605 10610 10615 10619 10624 10629 10635 10639 10644 10648 10653 10657 10662 10665 10670 10674 10677 10681 10685 10689 10693 10696 10699 10702 10704 10706 10709 10710 10711 10712 10713 10715 10718 10721 10724 10726 10728 10730 10733 10735 10738 10740 10742 10744 10746 10747 10749 10751 10753 10754 10756 10757 10759 10760 10761 10761
10416 10423 10430 10437 10443 10448 10453 10459 10466 10472 10478 10485 10492 10498 10503 10509 10514 10520 10525 10530 10535 10541 10547 10552 10558 10563 10569 10574 10579 10585 10590 10596 10601 10606 10611 10616 10621 10626 10631 10636 10640 10645 10649 10652 10656 10659 10663 10667 10670 10674 10677 10681 10685 10688 10691 10694 10696 10699 10701 10702 10703 10704 10705 10708 10712 10714 10716 10718 10720 10722 10725 10727 10729 10731 10733 10735 10737 10739 10740 10742 10743 10745 10747 10748 10749 10750 10751
10414 10417 10422 10429 10436 10443 10449 10454 10459 10464 10471 10477 10484 10490 10496 10501 10507 10512 10518 10522 10527 10533 10538 10543 10549 10553 10558 10563 10569 10575 10581 10586 10591 10596 10602 10607 10613 10618 10623 10627 10632 10636 10640 10644 10647 10651 10654 10657 10661 10664 10667 10671 10675 10678 10682 10684 10687 10690 10692 10694 10694 10694 10696 10699 10703 10706 10707 10708 10710 10711 10714 10716 10718 10720 10722 10724 10726 10728 10729 10730 10732 10734 10735 10737 10738 10739 10740
10412 10415 10418 10422 10427 10434 10441 10448 10453 10458 10463 10468 10474 10481 10487 10492 10498 10503 10509 10513 10518 10523 10529 10534 10539 10544 10548 10553 10559 10565 10571 10576 10581 10585 10590 10596 10603 10609 10614 10618 10622 10626 10630 10635 10639 10642 10645 10647 10651 10654 10658 10663 10666 10670 10673 10676 10679 10681 10683 10685 10686 10686 10688 10691 10695 10697 10698 10698 10699 10701 10703 10705 10708 10710 10712 10713 10715 10716 10718 10719 10721 10723 10724 10726 10727 10728 10729
10406 10411 10416 10419 10423 10427 10433 10439 10445 10450 10455 10460 10465 10471 10477 10482 10488 10493 10498 10503 10508 10514 10519 10525 10530 10535 10540 10544 10550 10555 10561 10566 10571 10575 10579 10584 10590 10596 10602 10607 10612 10616 10620 10624 10628 10632 10635 10638 10642 10646 10650 10654 10658 10661 10664 10668 10670 10673 10675 10676 10678 10680 10682 10684 10686 10687 10688 10689 10690 10692 10694 10695 10697 10699 10701 10703 10704 10706 10708 10709 10711 10713 10714 10715 10716 10717 10718
10399 10405 10410 10415 10419 10423 10427 10432 10437 10442 10447 10453 10458 10463 10468 10473 10479 10484 10489 10494 10499 10504 10510 10516 10521 10526 10531 10536 10542 10547 10552 10557 10561 10566 10570 10575 10579 10585 10590 10595 10600 10605 10610 10613 10617 10620 10625 10629 10634 10639 10642 10645 10649 10653 10656 10658 10662 10665 10667 10668 10670 10672 10674 10675 10676 10676 10678 10679 10681 10683 10684 10685 10687 10689 10691 10693 10695 10697 10699 10700 10702 10703 10704 10705 10706 10706 10707
10392 10397 10402 10408 10413 10418 10422 10426 10430 10434 10439 10444 10450 10455 10460 10465 10470 10475 10480 10485 10490 10495 10500 10506 10512 10517 10522 10527 10533 10538 10543 10548 10552 10557 10561 10566 10571 10575 10580 10584 10589 10595 10599 10603 10607 10610 10615 10621 10627 10631 10633 10637 10641 10645 10646 10649 10653 10657 10658 10659 10661 10662 10663 10664 10664 10666 10667 10669 10671 10673 10674 10675 10677 10679 10682 10684 10685 10687 10688 10690 10691 10692 10693 10694 10694 10694 10695
10385 10389 10394 10399 10405 10411 10416 10420 10424 10428 10432 10436 10441 10447 10452 10457 10462 10467 10472 10476 10481 10486 10491 10496 10501 10507 10512 10517 10523 10528 10534 10539 10544 10548 10553 10557 10562 10567 10571 10575 10580 10584 10589 10593 10597 10600 10605 10612 10618 10622 10624 10628 10632 10635 10636 10639 10644 10647 10648 10648 10650 10651 10653 10654 10655 10656 10657 10659 10660 10662 10664 10666 10668 10670 10672 10673 10675 10676 10677 10678 10679 10680 10681 10681 10681 10682 10682
10378 10381 10385 10390 10396 10402 10407 10412 10417 10422 10426 10430 10434 10439 10444 10449 10453 10458 10463 10468 10473 10477 10482 10486 10491 10496 10502 10507 10513 10518 10524 10529 10534 10539 10544 10549 10554 10559 10563 10567 10571 10575 10579 10583 10587 10590 10596 10602 10608 10612 10614 10617 10621 10624 10626 10630 10634 10636 10637 10638 10639 10640 10642 10644 10645 10646 10647 10648 10650 10652 10654 10657 10659 10660 10662 10663 10664 10665 10665 10666 10667 10668 10668 10668 10669 10670 10670
10371 10375 10378 10382 10387 10392 10398 10403 10408 10414 10419 10423 10427 10431 10436 10441 10445 10450 10455 10459 10464 10469 10473 10478 10482 10487 10492 10498 10503 10509 10514 10519 10524 10530 10535 10540 10545 10550 10554 10558 10562 10566 10570 10573 10577 10581 10587 10593 10598 10601 10604 10607 10610 10613 10616 10619 10622 10624 10626 10628 10629 10630 10631 10632 10633 10634 10637 10639 10641 10642 10645 10647 10649 10650 10651 10652 10652 10652 10653 10654 10655 10656 10656 10657 10657 10658 10659
10364 10368 10371 10375 10379 10384 10388 10393 10399 10404 10410 10415 10420 10424 10427 10432 10436 10441 10446 10451 10455 10460 10465 10470 10475 10479 10484 10488 10494 10499 10504 10508 10513 10519 10525 10530 10535 10540 10545 10549 10553 10557 10561 10565 10569 10574 10579 10584 10587 10590 10593 10596 10599 10602 10605 10608 10610 10613 10615 10617 10618 10619 10620 10620 10621 10623 10626 10629 10631 10633 10634 10636 10637 10639 10640 10641 10641 10640 10640 10641 10642 10643 10645 10646 10646 10647 10647
10358 10361 10364 10367 10371 10376 10380 10384 10389 10394 10400 10406 10411 10415 10419 10423 10427 10432 10437 10442 10447 10451 10456 10461 10466 10470 10475 10480 10484 10489 10493 10497 10502 10508 10514 10519 10525 10530 10535 10540 10544 10547 10551 10555 10560 10564 10569 10573 10576 10580 10583 10586 10589 10592 10594 10596 10598 10601 10603 10606 10608 10610 10610 10610 10611 10613 10617 10620 10622 10623 10624 10626 10626 10627 10628 10629 10629 10629 10628 10629 10629 10631 10632 10633 10634 10634 10634
10351 10354 10357 10360 10364 10368 10371 10375 10379 10384 10390 10395 10401 10405 10410 10414 10418 10423 10428 10433 10438 10442 10447 10451 10456 10461 10465 10470 10475 10479 10483 10487 10492 10497 10502 10507 10513 10518 10523 10528 10532 10536 10540 10545 10549 10553 10557 10561 10565 10569 10573 10576 10578 10580 10582 10585 10587 10590 10592 10595 10597 10599 10600 10600 10601 10603 10606 10609 10610 10612 10614 10616 10616 10615 10615 10615 10614 10614 10614 10615 10616 10618 10619 10621 10621 10621 10621
10344 10346 10350 10353 10357 10360 10363 10367 10371 10375 10379 10384 10390 10395 10400 10405 10410 10414 10419 10424 10428 10433 10438 10442 10446 10451 10455 10460 10465 10469 10472 10476 10481 10486 10491 10496 10501 10506 10511 10516 10520 10524 10528 10533 10538 10541 10545 10549 10553 10557 10561 10564 10566 10567 10569 10573 10576 10578 10580 10582 10585 10587 10589 10590 10590 10591 10593 10596 10597 10599 10601 10603 10602 10601 10601 10600 10599 10599 10600 10601 10602 10604 10606 10607 10608 10607 10608